CT2IRK-11 Weather Reports


time (UTC)temp
C
wind
direction
speed
KPH
gust
KPH
rain 1hr
cm
rain 24hr
cm
rain mn
cm
humidity
%
barometer
mb
20260904024049 22 225 0.0 0.0 0.00 0.00 0.00 76 1010.8
20260904022005 23 225 0.0 0.0 0.00 0.00 0.00 69 1010.6
20260904021005 24 28 0.0 0.0 0.00 0.00 0.00 66 1010.7
20260904020005 24 112 0.0 0.0 0.00 0.00 0.00 63 1011.0
20260904015005 24 99 0.0 0.0 0.00 0.00 0.00 65 1011.2
20260904012006 23 148 0.0 9.7 0.00 0.00 0.00 70 1011.7
20260904011005 23 202 0.0 0.0 0.00 0.00 0.00 76 1011.3
20260904010005 25 332 0.0 1.6 0.00 0.00 0.00 69 1011.2
20260904004005 25 45 0.0 0.0 0.00 0.00 0.00 69 1011.5
20260904003005 25 40 0.0 0.0 0.00 0.00 0.00 68 1011.4
20260904002005 25 39 0.0 0.0 0.00 0.00 0.00 66 1011.3
20260904001005 25 72 0.0 0.0 0.00 0.00 0.00 63 1011.5
20260904000005 26 191 0.0 0.0 0.00 0.00 0.00 62 1011.6
20260903235006 26 126 0.0 0.0 0.00 0.00 0.00 62 1011.8
20260903234005 26 147 0.0 0.0 0.00 0.00 0.00 62 1011.8
20260903233005 26 179 0.0 0.0 0.00 0.00 0.00 63 1012.0
20260903232005 26 180 0.0 3.2 0.00 0.00 0.00 63 1011.9
20260903231006 26 185 0.0 0.0 0.00 0.00 0.00 62 1011.6
20260903230007 26 197 0.0 0.0 0.00 0.00 0.00 61 1011.5
20260903224005 26 173 0.0 8.0 0.00 0.00 0.00 63 1011.4
20260903223005 26 199 8.0 9.7 0.00 0.00 0.00 63 1011.2
20260903222005 28 128 0.0 0.0 0.00 0.00 0.00 56 1010.9
20260903221005 28 71 0.0 0.0 0.00 0.00 0.00 55 1011.0
20260903220005 28 24 0.0 0.0 0.00 0.00 0.00 54 1011.0
20260903215006 28 23 0.0 0.0 0.00 0.00 0.00 53 1011.0
20260903214005 29 35 0.0 0.0 0.00 0.00 0.00 52 1011.0
20260903213005 29 45 0.0 0.0 0.00 0.00 0.00 51 1011.0
20260903212005 30 55 0.0 0.0 0.00 0.00 0.00 50 1011.0
20260903211005 30 45 0.0 0.0 0.00 0.00 0.00 49 1010.8
20260903210006 30 58 0.0 0.0 0.00 0.00 0.00 47 1010.7
20260903205005 31 35 0.0 11.3 0.00 0.00 0.00 46 1010.5
20260903204005 31 58 9.7 12.9 0.00 0.00 0.00 45 1010.5
20260903203005 31 45 11.3 14.5 0.00 0.00 0.00 44 1010.5
20260903202005 32 72 6.4 12.9 0.00 0.00 0.00 44 1010.5
20260903201005 32 61 11.3 14.5 0.00 0.00 0.00 41 1010.5
20260903200005 32 29 9.7 11.3 0.00 0.00 0.00 41 1010.2
20260903195005 33 22 11.3 16.1 0.00 0.00 0.00 39 1010.1
20260903194005 34 22 12.9 19.3 0.00 0.00 0.00 34 1010.1
20260903193005 35 45 11.3 14.5 0.00 0.00 0.00 34 1009.9
20260903192006 35 45 12.9 16.1 0.00 0.00 0.00 30 1009.8
20260903190014 37 68 0.0 4.8 0.00 0.00 0.00 21 1009.7
20260903185008 37 61 0.0 0.0 0.00 0.00 0.00 22 1009.7
20260903184005 37 45 0.0 0.0 0.00 0.00 0.00 21 1009.7
20260903183006 38 45 4.8 8.0 0.00 0.00 0.00 23 1009.8
20260903182005 38 53 0.0 1.6 0.00 0.00 0.00 24 1009.9
20260903181005 39 42 1.6 4.8 0.00 0.00 0.00 23 1009.9
20260903180005 40 6 3.2 4.8 0.00 0.00 0.00 21 1009.9
20260903175005 41 6 0.0 4.8 0.00 0.00 0.00 20 1009.9
20260903174005 41 13 3.2 4.8 0.00 0.00 0.00 17 1009.9
20260903173005 42 354 3.2 8.0 0.00 0.00 0.00 16 1009.9
20260903172005 41 328 6.4 9.7 0.00 0.00 0.00 15 1010.0
20260903171005 41 330 4.8 9.7 0.00 0.00 0.00 16 1009.8
20260903170005 41 340 3.2 9.7 0.00 0.00 0.00 16 1009.9
20260903164005 42 356 4.8 9.7 0.00 0.00 0.00 15 1009.8
20260903163005 42 303 0.0 9.7 0.00 0.00 0.00 14 1010.0
20260903162005 42 338 6.4 9.7 0.00 0.00 0.00 13 1010.0
20260903161005 43 5 3.2 9.7 0.00 0.00 0.00 13 1010.1
20260903160004 42 358 4.8 11.3 0.00 0.00 0.00 13 1010.3
20260903155005 43 315 8.0 9.7 0.00 0.00 0.00 12 1010.3
20260903154005 43 299 4.8 9.7 0.00 0.00 0.00 11 1010.3
20260903153005 42 336 6.4 9.7 0.00 0.00 0.00 12 1010.4
20260903152005 43 285 1.6 9.7 0.00 0.00 0.00 12 1010.6
20260903151005 42 20 4.8 9.7 0.00 0.00 0.00 11 1010.8
20260903150006 42 340 4.8 11.3 0.00 0.00 0.00 12 1010.9
20260903144004 42 341 3.2 9.7 0.00 0.00 0.00 12 1011.1
20260903142005 42 315 6.4 9.7 0.00 0.00 0.00 15 1011.2
20260903140004 41 329 8.0 11.3 0.00 0.00 0.00 18 1011.7
20260903135005 41 333 8.0 12.9 0.00 0.00 0.00 18 1011.7
20260903134005 41 355 4.8 11.3 0.00 0.00 0.00 19 1011.7
20260903133005 41 346 9.7 11.3 0.00 0.00 0.00 18 1011.8
20260903130004 40 0 0.0 8.0 0.00 0.00 0.00 20 1012.1
20260903125005 40 338 0.0 0.0 0.00 0.00 0.00 21 1012.3
20260903124004 40 28 3.2 8.0 0.00 0.00 0.00 21 1012.3
20260903123006 40 35 0.0 9.7 0.00 0.00 0.00 22 1012.3
20260903122005 40 341 0.0 8.0 0.00 0.00 0.00 25 1012.4
20260903121005 40 317 0.0 4.8 0.00 0.00 0.00 24 1012.5
20260903120004 40 328 0.0 0.0 0.00 0.00 0.00 24 1012.7
20260903115005 39 60 0.0 0.0 0.00 0.00 0.00 25 1012.8
20260903113004 38 70 0.0 0.0 0.00 0.00 0.00 27 1012.9
20260903112005 37 355 0.0 0.0 0.00 0.00 0.00 28 1013.0
20260903111005 36 338 0.0 0.0 0.00 0.00 0.00 31 1013.2
20260903110006 36 306 0.0 0.0 0.00 0.00 0.00 31 1013.0
20260903105005 34 6 0.0 0.0 0.00 0.00 0.00 34 1013.2
20260903104005 33 350 0.0 0.0 0.00 0.00 0.00 37 1013.2
20260903103005 33 328 0.0 0.0 0.00 0.00 0.00 39 1013.1
20260903102004 32 17 0.0 1.6 0.00 0.00 0.00 41 1013.2
20260903101005 31 345 1.6 9.7 0.00 0.00 0.00 45 1013.1
20260903100005 30 355 4.8 9.7 0.00 0.00 0.00 47 1013.0
20260903095005 28 14 4.8 12.9 0.00 0.00 0.00 50 1012.9
20260903094005 28 30 3.2 12.9 0.00 0.00 0.00 53 1012.9
20260903093006 27 40 8.0 11.3 0.00 0.00 0.00 57 1012.8
20260903092004 26 25 8.0 9.7 0.00 0.00 0.00 63 1012.9
20260903091004 26 19 0.0 1.6 0.00 0.00 0.00 64 1013.1
20260903090005 25 22 3.2 9.7 0.00 0.00 0.00 66 1013.0
20260903085005 25 58 11.3 11.3 0.00 0.00 0.00 67 1013.1
20260903084005 24 45 0.0 11.3 0.00 0.00 0.00 71 1013.1
20260903083004 23 38 1.6 9.7 0.00 0.00 0.00 70 1013.2
20260903081004 22 66 0.0 1.6 0.00 0.00 0.00 77 1013.4
20260903080005 22 68 0.0 0.0 0.00 0.00 0.00 79 1013.4
20260903075005 23 0 0.0 0.0 0.00 0.00 0.00 74 1013.3
20260903074004 22 325 0.0 0.0 0.00 0.00 0.00 77 1013.3
20260903073004 21 259 0.0 0.0 0.00 0.00 0.00 81 1013.2
20260903072005 20 292 0.0 0.0 0.00 0.00 0.00 86 1013.1
20260903070006 18 22 0.0 0.0 0.00 0.00 0.00 95 1012.9
20260903065004 17 7 0.0 0.0 0.00 0.00 0.00 99 1012.8
20260903064005 16 338 0.0 0.0 0.00 0.00 0.00 99 1012.8
20260903063006 16 22 0.0 0.0 0.00 0.00 0.00 99 1012.7
20260903062007 16 292 0.0 0.0 0.00 0.00 0.00 99 1012.7
20260903061011 16 306 0.0 0.0 0.00 0.00 0.00 99 1012.5
20260903055010 16 40 0.0 0.0 0.00 0.00 0.00 99 1012.2
20260903054006 16 37 0.0 0.0 0.00 0.00 0.00 99 1012.2
20260903053005 16 292 0.0 0.0 0.00 0.00 0.00 99 1012.3
20260903051006 16 22 0.0 0.0 0.00 0.00 0.00 99 1012.2
20260903050005 16 303 0.0 0.0 0.00 0.00 0.00 99 1012.2
20260903045005 16 248 0.0 0.0 0.00 0.00 0.00 99 1012.1
20260903044006 16 180 0.0 0.0 0.00 0.00 0.00 99 1012.1
20260903042005 16 190 0.0 0.0 0.00 0.00 0.00 99 1011.9
20260903041006 16 270 0.0 0.0 0.00 0.00 0.00 99 1011.8
20260903040008 16 338 0.0 0.0 0.00 0.00 0.00 98 1011.8
20260903035005 16 234 0.0 0.0 0.00 0.00 0.00 99 1012.0
20260903034006 17 223 0.0 0.0 0.00 0.00 0.00 99 1012.0
20260903033006 17 178 0.0 0.0 0.00 0.00 0.00 98 1011.7
20260903031005 17 270 0.0 0.0 0.00 0.00 0.00 98 1011.7
20260903030006 17 301 0.0 0.0 0.00 0.00 0.00 97 1011.8
20260903025005 17 225 0.0 0.0 0.00 0.00 0.00 95 1011.8